Temp
9 9 9 9 8 8 8 8 8 8 8 8 9 8 9 9 11 13 12 20 22 23 23 23 24 24 25 24 26 27 22 22 25 27 29 32 31 32 35 34 34 34 31 32 35
11 11 9 9 9 9 8 8 8 8 8 8 8 8 8 9 11 12 20 21 21 23 21 22 23 25 23 24 25 24 22 24 27 29 29 31 30 30 32 34 33 32 34 34 35
11 11 11 10 9 9 9 8 8 8 8 8 8 8 8 9 12 18 24 22 21 22 23 24 25 25 23 24 24 26 24 26 28 29 29 30 29 31 30 30 32 32 33 33 33
12 12 11 11 11 10 9 9 9 8 8 8 8 8 9 10 20 24 25 24 22 22 22 23 23 23 23 23 25 25 27 28 29 30 30 31 31 31 31 30 30 31 31 31 30
12 12 12 11 12 12 11 9 10 10 11 9 8 8 11 13 17 23 24 23 22 22 22 22 22 24 24 24 25 25 27 29 29 29 28 30 30 29 29 30 31 32 31 30 29
12 12 12 12 12 13 13 12 11 12 14 12 9 9 11 16 24 24 23 22 22 22 23 23 24 25 25 25 25 27 28 28 29 28 29 29 29 30 30 30 31 31 30 30 29
11 12 12 12 13 13 13 13 13 14 14 14 11 10 14 16 24 24 23 23 24 23 24 26 27 26 26 25 27 27 26 27 28 29 28 29 27 27 28 29 29 29 29 29 28
11 11 12 13 12 13 13 13 14 16 14 13 11 11 13 23 25 23 24 24 25 25 26 28 29 27 26 25 26 26 26 24 27 28 28 27 26 28 29 28 28 28 29 29 28
11 11 11 12 13 12 13 13 14 15 14 12 12 12 17 24 24 26 26 26 26 27 28 28 27 26 25 24 22 24 23 24 26 28 29 28 26 28 28 28 29 28 28 28 28
10 11 11 11 11 13 13 13 13 14 13 12 14 15 18 24 26 26 27 27 27 27 26 26 24 22 21 21 20 23 24 25 26 28 28 27 26 27 29 29 28 27 28 27 27
10 10 11 11 11 9 11 13 13 13 15 17 19 21 24 26 27 26 27 27 26 25 22 23 21 20 22 23 25 26 25 25 26 28 28 27 27 27 28 28 27 25 26 25 26
10 10 10 11 11 7 7 11 18 22 20 18 21 22 23 25 25 26 27 24 24 22 23 22 21 24 26 26 26 26 25 25 26 28 28 26 26 27 28 28 27 25 25 25 25
10 10 11 11 11 9 9 14 20 21 20 23 23 22 22 24 24 25 26 24 24 23 23 22 24 27 27 26 26 25 25 25 26 26 26 25 24 25 28 28 27 27 26 26 25
10 10 11 10 11 12 15 21 20 20 18 23 25 25 24 24 24 26 26 25 24 23 24 23 25 26 26 26 26 24 26 27 27 25 21 26 23 24 25 26 27 28 27 25 25
10 10 11 8 8 12 20 20 21 19 17 25 25 27 25 24 25 24 26 25 23 23 24 23 24 24 24 25 25 25 26 26 26 24 24 24 21 23 26 25 26 26 28 26 23
11 11 10 12 9 17 20 21 22 18 18 25 25 24 23 24 25 25 25 26 25 23 23 23 25 24 25 26 26 26 25 23 23 22 21 23 22 22 24 25 27 27 27 25 24
11 12 9 8 14 19 19 19 17 18 26 24 24 25 24 24 24 24 24 22 21 21 21 24 24 25 26 24 25 25 22 18 19 19 20 24 23 24 25 28 28 26 25 24 23
11 14 16 16 18 18 18 17 17 24 24 26 27 26 24 25 25 25 23 22 22 22 21 21 22 25 27 25 24 24 23 20 19 18 20 23 22 23 26 26 28 27 23 24 22
11 14 15 18 18 18 17 16 21 24 25 25 25 25 25 26 25 25 23 23 24 23 21 20 22 25 25 26 25 24 22 23 20 20 18 20 23 24 25 24 25 25 25 23 22
9 11 17 19 19 19 16 18 22 25 25 25 23 25 23 22 21 22 22 24 23 23 21 21 19 23 24 23 23 23 24 21 19 17 17 20 21 21 22 22 24 23 24 23 23
10 14 21 20 20 17 16 19 21 24 24 23 22 22 23 23 22 21 22 23 22 21 20 20 19 20 21 21 20 20 21 21 19 16 15 14 18 20 22 21 21 21 22 22 24
11 16 21 21 17 18 18 19 18 24 24 24 24 23 21 21 21 21 22 21 21 21 20 18 17 17 19 20 21 20 19 19 15 16 16 14 18 21 21 21 20 19 20 21 21
10 15 22 22 17 17 18 17 19 23 22 22 22 22 21 20 18 20 20 20 20 19 17 18 15 14 17 19 18 17 18 17 16 14 15 16 16 21 21 21 20 20 20 22 21
11 15 18 18 18 19 20 16 19 22 22 22 21 21 20 20 19 19 20 20 20 18 17 17 16 15 14 17 17 17 18 19 17 14 15 16 16 18 19 20 19 19 18 19 20
12 16 16 17 18 18 19 19 20 21 21 21 20 20 19 18 17 18 19 18 20 17 16 15 14 15 15 16 16 16 17 17 17 17 15 18 18 19 19 19 19 18 19 19 20
12 13 14 14 17 18 18 19 20 20 19 19 19 18 17 16 17 15 15 15 17 16 16 14 13 13 13 15 16 16 17 17 18 18 18 19 19 20 20 21 20 19 20 20 20
12 13 13 14 16 18 18 19 19 18 19 19 17 17 17 15 15 15 15 15 15 15 14 12 12 12 14 15 15 13 16 18 18 19 19 18 18 20 18 19 17 17 17 17 17
Height
795 791 788 784 782 780 778 777 775 774 774 774 773 772 772 770 768 767 763 752 753 756 758 759 759 760 763 764 760 759 791 798 783 773 761 734 744 728 712 723 724 727 735 735 738
794 791 787 783 780 777 776 774 773 772 771 771 771 770 769 767 765 760 743 747 749 753 756 758 758 757 764 761 762 770 787 781 759 751 754 740 741 740 735 729 731 733 726 732 738
794 790 786 782 779 776 773 771 771 770 768 769 769 768 768 768 765 741 733 739 745 750 753 755 755 755 764 760 760 760 774 759 750 745 744 742 740 732 742 746 735 736 732 729 733
792 790 786 782 778 775 772 770 768 767 766 765 765 766 766 767 758 735 733 735 742 748 752 753 753 760 763 767 753 767 753 750 744 739 740 741 734 737 736 739 729 730 730 731 735
791 788 785 781 777 774 771 768 766 765 764 764 763 763 764 765 750 735 734 736 743 746 747 749 753 752 760 756 753 757 750 743 738 736 738 733 738 739 738 728 725 725 728 733 735
789 786 783 781 777 773 769 766 763 762 762 762 762 763 765 763 734 733 734 737 739 743 744 745 744 740 747 749 753 742 741 738 734 736 734 739 738 734 733 727 727 727 730 732 734
789 784 781 778 775 771 767 763 759 759 759 760 761 763 762 746 733 732 734 736 738 739 740 737 736 741 739 746 733 735 747 739 736 732 738 734 745 744 731 727 730 729 729 731 732
788 784 779 775 772 769 765 761 756 756 757 758 759 762 754 728 729 734 733 735 736 736 735 734 732 733 737 735 738 747 743 762 738 732 730 738 759 735 723 727 729 727 726 728 730
786 783 778 774 769 766 762 759 756 755 755 756 759 759 745 726 725 725 729 730 731 733 733 732 732 738 741 756 767 753 772 762 750 726 727 734 747 729 719 723 722 723 725 724 727
784 779 776 772 768 763 758 756 754 754 754 757 757 760 737 723 717 721 723 726 727 730 734 737 744 756 758 767 788 772 764 753 750 726 722 730 736 726 716 720 721 722 722 725 725
781 777 772 768 764 760 755 755 756 757 753 742 735 730 721 716 716 720 721 722 724 732 752 744 763 771 760 751 747 745 749 751 738 720 726 727 729 723 717 718 724 724 722 721 721
777 773 769 763 759 757 756 754 737 733 736 728 725 723 719 720 720 716 720 729 733 747 741 752 762 744 735 734 738 740 747 747 732 720 725 732 733 722 716 715 716 721 721 719 718
775 770 764 758 752 748 745 736 731 731 737 718 711 717 718 718 719 717 717 724 733 743 743 754 741 728 731 735 738 740 745 744 741 728 724 733 741 732 713 711 710 709 707 709 709
773 768 761 752 748 745 738 726 728 733 749 720 706 707 711 714 721 710 713 721 729 739 738 740 728 728 730 732 730 749 728 728 730 743 769 731 767 743 725 719 710 704 703 704 702
769 765 759 756 749 745 731 727 727 736 766 703 705 696 700 716 711 712 710 717 734 735 736 741 734 737 740 735 730 735 723 727 729 742 746 745 766 746 721 724 711 700 692 694 698
762 759 756 750 747 734 730 727 728 752 755 705 699 707 715 713 710 709 714 715 719 732 733 735 721 728 729 724 725 722 729 734 737 747 767 750 754 751 734 719 705 692 683 687 695
755 750 750 750 739 734 734 734 754 749 696 709 706 704 712 715 714 715 722 731 741 752 748 733 728 721 719 733 724 728 746 779 780 775 771 738 743 737 714 701 696 698 691 691 696
749 740 738 737 734 733 735 744 755 710 705 688 689 698 711 704 710 712 722 734 727 732 742 748 751 723 711 723 732 733 742 770 781 785 764 735 749 733 703 694 689 698 697 697 702
743 737 734 730 732 734 741 755 726 706 698 701 697 703 702 698 707 707 717 721 715 720 744 747 741 715 717 712 720 733 747 734 758 758 769 751 731 715 708 706 703 705 700 706 706
745 738 728 725 729 732 744 739 714 697 699 702 715 699 715 720 726 721 722 714 720 720 725 736 754 725 720 719 721 729 727 752 759 784 780 752 743 736 726 719 710 710 711 708 707
745 739 723 724 728 734 743 725 715 700 702 711 715 715 715 717 722 728 727 718 723 728 727 734 744 744 732 735 742 741 741 739 747 767 785 787 759 727 722 720 723 720 713 715 709
747 740 720 722 735 731 731 725 719 702 700 706 707 712 720 723 726 725 726 729 725 730 740 743 752 759 746 731 726 735 745 744 773 769 761 772 748 713 719 719 721 721 717 714 710
753 736 719 720 737 733 728 726 721 705 710 712 714 716 721 729 741 729 728 728 731 736 749 745 762 773 755 739 742 752 748 752 757 769 765 766 754 717 716 715 714 715 713 708 709
755 737 723 721 719 725 724 738 726 707 713 713 719 720 727 730 729 736 733 729 729 739 742 747 757 764 774 755 752 755 747 744 752 769 759 754 745 733 723 718 713 710 709 705 704
753 735 734 732 727 726 724 723 718 717 716 718 722 723 732 741 742 739 735 738 732 739 745 753 765 762 759 755 753 751 749 747 748 743 754 736 732 725 720 715 708 705 702 700 698
754 748 741 740 726 725 727 726 720 720 725 729 730 731 737 744 744 751 747 751 747 747 750 758 767 765 767 757 751 746 741 736 733 730 726 724 718 709 701 696 699 699 698 698 698
754 750 747 740 733 728 726 722 726 726 724 727 734 735 738 747 743 744 744 744 746 749 756 766 769 768 762 753 752 757 731 725 721 717 716 722 714 702 709 706 707 707 707 708 708
Wind_Speed
22 19 18 17 14 12 11 11 11 11 11 12 12 12 13 14 15 9 9 15 16 18 11 6 10 11 12 4 6 3 2 5 8 9 9 15 6 8 5 7 5 3 9 9 9
21 22 21 18 16 13 11 11 11 11 11 11 12 12 13 13 14 15 26 19 20 13 17 14 9 11 4 5 4 5 5 8 9 11 8 11 5 8 7 3 3 7 6 1 7
21 21 22 22 18 16 12 10 10 10 11 10 10 11 11 9 5 9 5 27 24 17 15 14 20 6 8 6 7 4 9 7 12 15 7 6 7 6 7 5 4 2 3 4 4
20 22 22 22 23 19 15 12 10 10 10 10 9 9 10 2 2 1 2 20 25 20 12 10 8 5 8 8 10 8 11 9 18 16 7 5 6 4 4 5 7 4 4 5 8
19 20 23 22 23 22 21 16 12 10 9 8 7 8 3 4 9 9 6 15 21 15 16 11 9 7 6 9 10 10 10 13 18 12 7 6 6 6 6 8 8 3 5 6 8
19 20 22 24 23 23 24 23 17 11 8 6 5 4 3 5 9 11 12 16 13 15 16 17 9 10 8 9 9 9 15 13 12 12 5 6 6 4 7 9 8 6 6 5 7
21 21 22 23 24 25 25 28 20 10 7 6 3 2 5 14 7 12 12 11 15 18 12 24 23 6 6 9 8 9 8 8 10 4 8 7 8 9 10 9 9 10 8 9 10
23 23 22 23 25 27 27 27 15 7 6 5 3 2 7 10 9 15 17 14 16 21 22 19 21 3 2 8 8 8 5 5 5 7 10 8 10 10 10 11 14 10 8 8 10
23 25 25 26 25 30 29 23 11 7 7 5 2 5 8 5 13 16 24 18 23 19 16 11 8 3 6 5 6 5 5 8 10 16 16 17 8 11 12 8 6 10 8 8 7
25 25 27 30 28 31 30 20 9 5 1 4 9 4 9 6 14 17 16 17 6 6 3 3 0 3 4 1 6 8 7 8 13 14 14 16 12 9 8 7 8 8 8 7 8
27 28 27 30 33 29 22 6 1 2 7 9 9 6 11 13 12 10 18 14 7 7 7 7 4 7 12 11 13 11 12 11 9 9 6 4 8 8 9 3 6 8 10 10 10
28 28 31 30 37 25 13 5 11 4 7 18 17 17 22 13 6 8 18 7 7 7 8 6 10 11 12 13 12 13 13 12 7 8 6 7 7 7 8 6 8 10 10 10 8
29 29 31 37 36 18 14 20 23 19 4 11 17 9 6 8 5 5 13 8 6 8 8 9 10 17 17 13 12 9 6 7 5 10 9 8 8 8 4 6 9 9 8 9 11
32 31 31 39 9 8 7 10 22 18 3 6 6 9 9 5 5 13 8 7 4 9 12 8 13 17 12 11 7 6 10 12 7 5 5 5 10 7 7 13 14 17 12 10 11
34 34 36 25 16 7 9 16 12 8 3 10 8 13 9 11 3 6 14 5 7 10 5 7 7 9 9 6 12 3 8 10 7 5 2 6 3 6 7 10 13 10 19 14 10
34 35 42 4 7 16 14 13 4 1 6 10 8 8 10 10 11 10 7 4 4 6 9 12 9 6 4 10 8 7 6 7 5 2 7 6 5 5 10 11 11 11 12 14 16
37 40 30 14 6 10 14 5 1 4 4 2 8 13 14 11 9 10 12 9 6 5 9 13 14 13 14 9 8 4 3 4 4 3 5 8 11 12 10 3 5 4 13 14 12
45 31 13 16 11 11 10 2 4 1 1 9 11 15 14 12 10 14 13 8 12 11 7 5 9 14 8 9 5 8 5 4 5 4 7 8 4 5 12 11 11 7 8 10 9
38 16 10 14 10 8 1 4 2 5 7 8 6 4 6 9 5 10 13 13 7 1 1 3 4 12 10 9 2 4 7 7 4 7 4 4 10 10 6 10 5 8 10 9 8
25 10 12 16 10 9 2 5 4 5 7 6 4 5 4 6 9 7 5 4 4 3 7 3 4 6 6 7 8 2 4 6 1 3 4 4 6 2 8 9 6 8 5 6 5
4 3 8 15 11 1 3 5 6 8 4 5 7 6 6 2 8 3 0 3 7 7 8 5 2 4 6 1 4 5 6 5 3 6 5 1 5 6 8 8 7 12 14 8 4
6 3 14 17 2 3 4 1 9 2 6 2 2 3 5 6 4 4 2 6 6 5 4 2 1 2 4 11 10 6 7 1 2 5 3 3 11 11 5 5 6 7 8 9 5
4 3 11 12 3 4 4 10 12 1 6 6 5 6 6 3 3 5 6 10 8 5 3 2 2 3 6 5 7 5 8 5 4 2 4 5 4 3 6 2 4 6 9 10 5
3 3 0 2 4 5 2 6 7 8 3 3 5 5 1 3 4 2 4 3 5 6 8 4 2 4 4 6 7 7 10 10 4 3 2 8 14 13 9 5 6 8 9 12 8
3 3 5 3 3 5 6 8 10 4 5 5 2 1 5 3 6 4 1 7 1 12 5 2 2 5 7 11 14 15 15 13 16 14 13 13 18 12 10 10 8 10 9 9 12
3 4 5 6 8 4 2 5 7 7 4 5 4 9 8 3 3 6 5 4 3 2 3 3 1 4 4 12 15 19 17 19 18 19 22 20 23 11 14 14 8 6 6 6 7
8 8 2 5 7 4 3 3 8 5 1 4 7 3 4 7 6 7 6 5 6 3 2 4 1 1 2 7 13 9 15 15 16 17 12 16 7 11 8 8 8 8 11 12 12
Wind_Direction
4 358 6 354 344 333 317 307 303 302 300 294 300 304 305 305 303 281 234 223 232 243 239 307 274 228 227 235 257 274 193 249 250 261 271 296 342 309 188 143 83 77 125 148 135
1 1 1 360 354 341 329 317 307 300 296 301 305 306 309 317 308 255 246 233 217 250 227 247 261 203 207 206 248 172 179 235 252 267 274 290 14 336 359 90 121 118 315 48 157
355 359 359 1 3 353 335 323 313 304 303 301 301 309 315 337 270 242 279 213 220 225 222 240 253 207 205 223 222 233 231 237 252 261 290 322 339 332 9 343 29 68 178 284 243
354 353 356 356 358 360 348 327 316 306 300 300 305 311 321 328 158 280 203 194 209 222 219 233 264 232 198 215 239 242 235 238 265 268 273 277 303 307 286 254 293 35 356 6 348
350 351 350 351 353 355 355 341 315 303 299 294 305 324 17 224 251 254 149 174 193 201 205 214 236 237 216 213 239 235 227 228 248 259 274 248 256 274 297 277 277 324 333 338 334
346 348 347 347 347 349 346 343 323 301 309 312 305 334 232 248 215 173 168 173 182 179 209 229 243 223 246 233 224 234 228 232 242 250 251 253 253 226 273 281 281 236 232 249 282
343 344 343 344 344 342 341 338 321 280 290 296 296 304 260 243 173 156 168 178 177 184 213 228 247 260 281 262 267 264 275 254 227 226 261 244 259 242 231 238 243 232 199 207 228
341 339 338 339 339 339 336 337 325 271 274 269 256 243 251 256 265 206 180 196 206 217 228 256 250 246 351 315 323 298 326 263 267 245 240 198 250 242 236 230 236 217 205 206 226
341 339 336 336 335 333 329 331 321 293 278 240 249 194 259 269 221 225 211 207 210 222 236 266 16 359 310 289 311 295 226 268 267 238 240 209 224 224 241 246 248 195 196 228 234
335 335 333 333 331 327 320 322 308 288 348 228 265 279 267 227 202 205 218 218 203 189 240 237 8 228 294 234 225 242 254 235 247 263 229 235 213 224 244 188 185 186 203 218 217
331 331 330 330 328 330 324 339 208 197 237 204 192 229 286 216 119 192 206 218 223 166 203 229 186 228 224 227 237 261 271 276 278 293 17 226 192 210 231 230 220 215 210 216 213
326 328 328 327 324 321 300 237 245 326 283 225 231 244 267 292 258 195 194 202 208 217 191 253 225 233 253 256 241 245 259 276 278 309 333 301 268 238 231 244 246 207 223 213 211
326 328 328 328 324 299 224 224 245 296 285 279 221 217 225 212 260 220 174 206 197 223 229 202 237 225 236 246 260 274 266 273 273 310 316 331 309 285 254 267 254 251 220 214 195
327 328 330 330 310 316 240 258 235 253 300 260 172 202 194 219 254 234 258 165 231 232 226 238 240 252 264 233 222 263 284 287 255 245 259 286 285 293 257 249 249 243 231 215 201
329 328 329 327 291 282 301 347 241 205 286 135 148 142 149 175 147 185 223 171 227 247 287 277 313 334 325 296 346 240 283 250 274 266 254 269 262 252 246 278 272 238 228 217 156
328 326 328 334 249 273 317 5 4 209 241 166 136 182 146 203 244 142 187 152 205 250 272 269 278 282 261 285 302 320 7 15 5 342 272 247 245 274 259 251 279 295 232 153 130
327 323 312 272 227 346 300 309 225 237 210 293 172 160 180 193 226 155 174 186 194 196 238 257 262 246 247 252 280 279 30 343 332 308 259 245 254 241 269 264 28 13 82 112 113
328 325 289 249 245 306 300 310 253 163 211 276 139 173 191 185 207 175 181 204 204 237 273 247 256 233 236 231 236 266 198 207 253 226 258 266 264 273 314 310 33 27 91 109 113
331 331 271 252 201 239 60 244 274 310 17 15 335 273 230 157 272 197 183 201 189 159 82 2 265 331 192 282 303 254 284 204 11 326 305 249 294 275 13 28 35 43 109 128 129
329 310 270 240 180 189 173 251 284 36 39 338 295 339 77 121 355 26 58 27 75 95 142 233 324 307 352 17 332 297 272 276 78 274 266 259 262 254 14 347 7 6 80 110 139
315 282 154 156 156 186 226 256 304 111 49 352 9 351 48 119 161 150 192 57 54 24 11 42 140 295 341 216 269 318 314 284 165 151 196 240 260 161 24 20 26 14 5 13 221
318 267 172 158 149 221 253 296 277 81 111 252 272 350 48 41 13 1 49 53 64 33 358 75 42 285 266 287 284 297 288 21 151 265 279 211 248 305 106 63 39 353 335 331 342
313 274 188 188 239 236 27 325 282 355 46 8 23 59 72 69 42 355 29 106 80 41 41 349 15 331 308 296 36 48 333 342 121 84 220 239 271 311 304 130 45 340 294 287 288
286 296 351 181 249 283 272 196 252 87 124 59 18 44 336 294 144 223 348 84 123 91 100 49 277 206 223 289 321 294 291 291 214 235 256 242 276 276 282 260 242 248 243 249 240
244 290 2 329 8 343 12 320 315 138 58 66 302 241 79 19 9 332 44 355 46 153 124 115 199 300 299 305 300 287 281 271 269 265 238 268 264 267 269 261 241 229 235 233 244
307 356 345 295 304 327 270 260 263 85 48 98 36 45 56 36 294 304 349 14 268 134 76 51 289 360 285 273 268 270 263 258 255 258 264 275 275 272 253 267 295 350 30 15 5
359 334 304 292 310 310 290 79 60 59 279 49 33 15 7 35 355 336 305 256 235 222 105 121 122 307 251 329 327 307 256 258 259 256 252 264 307 23 14 38 34 13 39 40 21